Regional Weather Roundup
Issued by NWS

Home | Current Version | Previous Version | Text Only | Print | Product List | Glossary On
Versions: 1 2 3 4 5 6 7 8 9 10 11 12 13 14 15 16 17 18 19 20 21 22 23 24 25 26 27 28 29 30 31 32 33 34 35 36 37 38 39 40 41 42 43 44 45 46 47 48 49 50
081
ASUS43 KLSX 221257
RWRMO

WEATHER SUMMARY FOR MISSOURI
NATIONAL WEATHER SERVICE SPRINGFIELD MO
800 AM CDT SUN APR 22 2018

NOTE: "FAIR" INDICATES FEW OR NO CLOUDS BELOW 12,000 FEET WITH NO
       SIGNIFICANT WEATHER AND/OR OBSTRUCTIONS TO VISIBILITY.
       CURRENT SKY AND/OR WEATHER CONDITIONS ARE NOT AVAILABLE FOR
       CHILLICOTHE AND FARMINGTON.

MOZ001>031-035>038-043-044-053-054-221400-
...NORTHERN AND WESTERN MISSOURI...

CITY           SKY/WX    TMP DP  RH WIND       PRES   REMARKS
KANSAS CTY INT CLOUDY    50  34  54 NE16      30.13R
LEE`S SUMMIT   LGT RAIN  48  40  73 NE12G21   30.11R
ST JOSEPH      CLOUDY    51  33  50 NE7       30.16R
CHILLICOTHE      N/A     51  32  48 NE7       30.18R

$$
MOZ066>068-077>081-088>096-101>105-221400-
...SOUTHWEST MISSOURI...

CITY           SKY/WX    TMP DP  RH WIND       PRES   REMARKS
SPRINGFIELD    LGT RAIN  54  53  97 E8        29.97S
JOPLIN         RAIN      49  49 100 NE8       29.98S FOG
BRANSON        RAIN      54  54 100 S6        29.97S FOG

$$
MOZ032>034-039>042-045>050-055>058-069>072-221400-
...CENTRAL MISSOURI...

CITY           SKY/WX    TMP DP  RH WIND       PRES   REMARKS
COLUMBIA       NOT AVBL
JEFFERSON CITY LGT RAIN  50  44  80 E9        30.12R
ROLLA          LGT RAIN  50  47  89 E14       30.08F
SEDALIA        LGT RAIN  49  48  97 E14       30.12R FOG
WARRENSBURG    RAIN      45  43  93 N8        30.11R

$$
MOZ051-052-059>065-221400-
...EAST CENTRAL MISSOURI...

CITY           SKY/WX    TMP DP  RH WIND       PRES   REMARKS
ST LOUIS INTL  LGT RAIN  52  40  63 E12       30.17S

$$
MOZ072>076-082>087-097>100-106>115-221400-
...SOUTH CENTRAL AND SOUTHEAST MISSOURI...

CITY           SKY/WX    TMP DP  RH WIND       PRES   REMARKS
CAPE GIRARDEAU LGT RAIN  52  48  86 E10       30.12F
POPLAR BLUFF   LGT RAIN  52  50  93 E10       30.07F
WEST PLAINS    CLOUDY    54  50  86 E12G21    30.02R

$$




USA.gov is the U.S. government's official web portal to all federal, state and local government web resources and services.